Date String (YYYY-MM-DD hh:mm:ss) UTC,Instrument flags,Ambient pressure (hPa),Sample flow (lpm),Bypass flow (lpm),Sample temperature (°C),Ambient temperature (°C),ASC tube jacket temperature (°C),LED temperature (°C),Box temperature (°C),Sample RH (%),Span deviation,Mass concentration (μg/m³),Mass concentration (μg/m³),Mass concentration (μg/m³)
DateTimeUTC,F1_M11,P_M11,Q1_M11,Q2_M11,T1_M11,T2_M11,T3_M11,T4_M11,T5_M11,U1_M11,ZSPAN_M11,X2_M11,X0_M11,X1_M11
2021-10-18 23:00:00,,0818.2,5.00,0.00,30.0,28.9,00.0,39.0,31.9,10.9,0000.0,0003.67,0011.38,0002.16
2021-10-18 23:01:00,,0818.2,5.01,0.00,30.1,29.0,00.0,39.0,31.9,11.0,0000.0,0003.68,0011.43,0002.16
2021-10-18 23:02:00,,0818.1,5.00,0.00,30.1,29.1,00.0,39.0,32.0,11.0,0000.0,0003.66,0012.22,0002.15
2021-10-18 23:03:00,,0818.1,5.00,0.00,30.1,29.2,00.0,39.0,32.0,11.0,0000.0,0003.68,0012.42,0002.15
2021-10-18 23:04:00,,0818.1,4.99,0.00,30.2,29.3,00.0,39.1,32.1,11.0,0000.0,0003.70,0012.44,0002.16
2021-10-18 23:05:00,,0818.2,5.01,0.00,30.2,29.4,00.0,39.1,32.1,11.0,0000.0,0003.71,0013.41,0002.15
2021-10-18 23:06:00,,0818.1,5.01,0.00,30.3,29.4,00.0,39.1,32.1,10.9,0000.0,0003.72,0013.36,0002.14
2021-10-18 23:07:00,,0818.1,4.99,0.00,30.3,29.3,00.0,39.2,32.1,10.9,0000.0,0003.78,0013.69,0002.14
2021-10-18 23:08:00,,0818.1,5.00,0.00,30.2,27.5,00.0,39.2,31.7,10.9,0000.0,0003.84,0014.43,0002.14
2021-10-18 23:09:00,,0818.0,5.00,0.00,30.0,25.8,00.0,39.1,31.2,11.0,0000.0,0003.86,0014.94,0002.13
2021-10-18 23:10:00,,0818.0,5.02,0.00,29.9,25.9,00.0,39.1,31.2,11.1,0000.0,0003.89,0015.59,0002.12
2021-10-18 23:11:00,,0818.0,5.00,0.00,29.8,26.4,00.0,39.0,31.2,11.2,0000.0,0003.91,0015.89,0002.11
2021-10-18 23:12:00,,0818.0,5.00,0.00,29.8,26.9,00.0,39.0,31.3,11.2,0000.0,0003.91,0016.15,0002.11
2021-10-18 23:13:00,,0818.0,5.00,0.00,29.8,27.4,00.0,39.0,31.4,11.3,0000.0,0003.88,0016.65,0002.12
2021-10-18 23:14:00,,0818.0,5.00,0.00,29.8,27.7,00.0,38.9,31.5,11.2,0000.0,0003.86,0017.49,0002.11
2021-10-18 23:15:00,,0818.0,5.00,0.00,29.8,28.0,00.0,38.9,31.6,11.1,0000.0,0003.88,0018.17,0002.10
2021-10-18 23:16:00,,0818.0,5.01,0.00,29.9,28.2,00.0,38.9,31.6,11.0,0000.0,0003.87,0016.93,0002.09
2021-10-18 23:17:00,,0818.0,5.00,0.00,29.9,28.5,00.0,38.9,31.7,11.0,0000.0,0003.89,0016.48,0002.11
2021-10-18 23:18:00,,0818.1,5.00,0.00,29.9,28.6,00.0,38.9,31.7,11.0,0000.0,0003.88,0017.47,0002.09
2021-10-18 23:19:00,,0818.1,4.99,0.00,29.9,28.8,00.0,38.9,31.7,11.0,0000.0,0003.81,0017.26,0002.10
2021-10-18 23:20:00,,0818.1,5.01,0.00,30.0,28.9,00.0,39.0,31.8,11.0,0000.0,0003.81,0017.78,0002.11
2021-10-18 23:21:00,,0818.1,5.00,0.00,30.0,29.0,00.0,39.0,31.9,11.0,0000.0,0003.78,0017.42,0002.11
2021-10-18 23:22:00,,0818.1,4.99,0.00,30.1,29.1,00.0,39.0,31.9,10.9,0000.0,0003.77,0017.68,0002.12
2021-10-18 23:23:00,,0818.1,5.00,0.00,30.1,29.1,00.0,39.0,32.0,11.0,0000.0,0003.80,0018.97,0002.12
2021-10-18 23:24:00,,0818.1,5.01,0.00,30.1,29.2,00.0,39.0,32.0,11.0,0000.0,0003.82,0019.80,0002.13
2021-10-18 23:25:00,,0818.1,5.00,0.00,30.2,29.3,00.0,39.1,32.0,10.9,0000.0,0003.85,0019.33,0002.15
2021-10-18 23:26:00,,0818.1,4.99,0.00,30.2,29.3,00.0,39.1,32.1,10.9,0000.0,0003.81,0019.61,0002.15
2021-10-18 23:27:00,,0818.0,5.00,0.00,30.3,29.3,00.0,39.1,32.1,10.9,0000.0,0003.80,0021.68,0002.16
2021-10-18 23:28:00,,0818.0,5.00,0.00,30.3,29.4,00.0,39.2,32.2,10.8,0000.0,0003.75,0022.26,0002.15
2021-10-18 23:29:00,,0818.1,4.99,0.00,30.3,29.5,00.0,39.2,32.2,10.7,0000.0,0003.73,0021.02,0002.16
2021-10-18 23:30:00,,0818.1,4.99,0.00,30.4,29.3,00.0,39.2,32.2,10.7,0000.0,0003.71,0020.75,0002.14
2021-10-18 23:31:00,,0818.0,5.01,0.00,30.3,27.4,00.0,39.2,31.6,10.6,0000.0,0003.68,0019.56,0002.13
2021-10-18 23:32:00,,0818.0,5.00,0.00,30.1,26.7,00.0,39.2,31.4,10.8,0000.0,0003.71,0019.58,0002.15
2021-10-18 23:33:00,,0818.1,4.99,0.00,30.0,27.0,00.0,39.2,31.5,10.9,0000.0,0003.67,0019.80,0002.15
2021-10-18 23:34:00,,0818.0,5.00,0.00,30.0,27.4,00.0,39.1,31.5,11.0,0000.0,0003.69,0018.58,0002.15
2021-10-18 23:35:00,,0818.1,5.00,0.00,30.0,27.8,00.0,39.1,31.6,11.0,0000.0,0003.66,0016.75,0002.15
2021-10-18 23:36:00,,0818.1,4.99,0.00,30.0,28.1,00.0,39.1,31.7,10.9,0000.0,0003.64,0015.55,0002.14
2021-10-18 23:37:00,,0818.1,5.01,0.00,30.0,28.4,00.0,39.1,31.8,10.9,0000.0,0003.58,0015.05,0002.13
2021-10-18 23:38:00,,0818.1,5.00,0.00,30.0,28.7,00.0,39.1,31.9,10.9,0000.0,0003.55,0013.56,0002.12
2021-10-18 23:39:00,,0818.1,5.01,0.00,30.1,28.8,00.0,39.1,31.9,10.9,0000.0,0003.58,0012.30,0002.11
2021-10-18 23:40:00,,0818.1,5.00,0.00,30.1,29.0,00.0,39.1,32.0,10.9,0000.0,0003.58,0012.21,0002.12
2021-10-18 23:41:00,,0818.1,5.00,0.00,30.2,29.1,00.0,39.1,32.0,10.9,0000.0,0003.58,0012.09,0002.13
2021-10-18 23:42:00,,0818.1,4.99,0.00,30.2,29.2,00.0,39.1,32.0,10.8,0000.0,0003.60,0012.62,0002.14
2021-10-18 23:43:00,,0818.2,5.01,0.00,30.2,29.3,00.0,39.2,32.1,10.9,0000.0,0003.57,0012.99,0002.12
2021-10-18 23:44:00,,0818.1,5.01,0.00,30.3,29.3,00.0,39.2,32.1,10.9,0000.0,0003.63,0012.48,0002.11
2021-10-18 23:45:00,,0818.1,4.99,0.00,30.3,29.4,00.0,39.2,32.2,10.8,0000.0,0003.63,0012.60,0002.12
2021-10-18 23:46:00,,0818.1,5.00,0.00,30.3,28.4,00.0,39.2,31.9,10.8,0000.0,0003.66,0012.78,0002.13
2021-10-18 23:47:00,,0818.1,4.99,0.00,30.1,26.1,00.0,39.2,31.2,10.9,0000.0,0003.63,0013.18,0002.13
2021-10-18 23:48:00,,0818.1,5.02,0.00,29.9,25.6,00.0,39.1,31.1,11.0,0000.0,0003.64,0013.71,0002.13
2021-10-18 23:49:00,,0818.1,5.00,0.00,29.8,26.1,00.0,39.1,31.1,11.0,0000.0,0003.68,0013.32,0002.15
2021-10-18 23:50:00,,0818.1,4.99,0.00,29.8,26.6,00.0,39.0,31.2,11.1,0000.0,0003.66,0013.36,0002.15
2021-10-18 23:51:00,,0818.1,5.00,0.00,29.7,27.1,00.0,39.0,31.3,11.1,0000.0,0003.66,0013.50,0002.13
2021-10-18 23:52:00,,0818.1,5.00,0.00,29.8,27.5,00.0,38.9,31.4,11.2,0000.0,0003.63,0013.96,0002.12
2021-10-18 23:53:00,,0818.1,5.00,0.00,29.8,27.9,00.0,38.9,31.5,11.1,0000.0,0003.59,0013.87,0002.12
2021-10-18 23:54:00,,0818.2,5.01,0.00,29.8,28.2,00.0,38.9,31.6,11.1,0000.0,0003.58,0014.18,0002.12
2021-10-18 23:55:00,,0818.2,4.99,0.00,29.8,28.4,00.0,38.9,31.6,11.1,0000.0,0003.54,0014.83,0002.12
2021-10-18 23:56:00,,0818.2,5.00,0.00,29.9,28.7,00.0,38.9,31.7,11.1,0000.0,0003.49,0014.61,0002.11
2021-10-18 23:57:00,,0818.2,5.01,0.00,29.9,28.8,00.0,39.0,31.8,11.1,0000.0,0003.46,0015.52,0002.10
2021-10-18 23:58:00,,0818.3,5.00,0.00,30.0,29.0,00.0,39.0,31.8,11.1,0000.0,0003.46,0016.14,0002.09
2021-10-18 23:59:00,,0818.3,4.99,0.00,30.0,29.1,00.0,39.0,31.9,11.1,0000.0,0003.48,0015.60,0002.09
